TJS-1

Last updated on May 20, 2019, 3:09 a.m. UTC

1 40892U 15046A   19139.74850990 -.00000167  00000-0  10000-3 0  9993
2 40892   0.0393 289.0891 0009095 114.7708 257.6675  1.00271808 13625
UTC
Height (km)
Latitude
Longitude
Inclination
Orbital Period
UTC large
Height (km)
Speed (km/s)
/
Latitude / Longitude
Inclination (degrees)
Orbital Period (minutes)
Azimuth
Elevation
Range (km)
Doppler Factor
iOS Compass Heading
iOS Angle

Next 30 passes for location: Hong Kong

Rise time Rise Azimuth (degrees) Set time Set Azimuth (degrees) Duration Max altitude (degrees)

No matching passes for this satellites